Location: Newark
(53.3333°N, 83.7500°E)
Time: 16:40:30
(UTC+00:00)

Vanguard 2 - Pass Details

Date: 19 November 2019
Orbit: 553 x 2938 km, 32.9° (Epoch: 08 December)

Event Time Altitude Azimuth Distance (km) Brightness Sun altitude
Rises 02:19:57 0° 211° (SSW) 5,292 11.9 2.1°
Reaches altitude 10° 02:28:36 10° 173° (S) 3,438 11.7 3.1°
Maximum altitude 02:29:09 10° 169° (S) 3,376 11.7 3.1°
Drops below altitude 10° 02:29:40 10° 165° (SSE) 3,326 11.8 3.2°
Sets 02:35:54 0° 122° (ESE) 3,630 13.4 3.9°
